Regional & State Weather Roundups


915 
NZUS01 KOTX 152325
RWROTX
Eastern Washington/Northern Idaho Roundup     
National Weather Service, Spokane WA
300 PM PST FRI DEC 15 2017
Note: "fair" indicated few or no clouds below 12,000 feet with no
significant weather and/or obstructions to visibility.
...Northeast Washington and Northern Idaho Panhandle...
  
CITY           SKY/WX    TMP DP  RH WIND       PRES   REMARKS
Spokane Intl   LGT SNOW  26  25  96 S6        30.07S FOG     WCI  19  
Spokane Downto FLURRIES  29  26  89 SW6       30.10R WCI  23          
Coeur d Alene  LGT SNOW  28  27  93 SW7       30.07R FOG     WCI  21  
Deer Park      CLOUDY    27  26  96 SE7       30.07S WCI  19          
Sandpoint      CLOUDY    30  28  93 S3        30.05S                  
Bonners Ferry  CLOUDY    30  27  86 SW6       30.01F WCI  24          
...Southeast Washington and southern Idaho Panhandle...
  
CITY           SKY/WX    TMP DP  RH WIND       PRES   REMARKS
Walla Walla    LGT SNOW  32  30  92 NW7       30.14R FOG     WCI  26  
Pullman/Moscow SNOW      25  22  88 W3        30.09R VSB 1/4          
Lewiston       SNOW      30  29  96 W6        30.12S VSB 1/2 WCI  24  
Lowell           N/A     35  32  88 CALM      30.11R                  
Grangeville    CLOUDY    28  28 100 SE6       30.03F WCI  22          
...Columbia Basin...
  
CITY           SKY/WX    TMP DP  RH WIND       PRES   REMARKS
Ephrata        CLOUDY    32  25  75 S5        30.12S WCI  27          
Moses Lake     CLOUDY    30  29  96 S9        30.13S WCI  22          
Pasco          CLOUDY    33  29  85 SW7       30.19F WCI  27          
Richland       CLOUDY    34  31  90 S12       30.17F WCI  25          
Hermiston      CLOUDY    32  31  96 N6        30.16F WCI  26          
Pendleton      CLOUDY    32  31  96 E3        30.12S                  
...East Slopes Cascades...
  
CITY           SKY/WX    TMP DP  RH WIND       PRES   REMARKS
The Dalles     MOCLDY    39  28  64 E5        30.19F                  
Yakima         CLOUDY    34  29  82 E3        30.15S                  
Ellensburg     CLOUDY    35  28  75 E5        30.07F                  
Stampede Pass  LGT SNOW  31  30  96 SW6       30.04R VSB 3/4 WCI  25  
Wenatchee      CLOUDY    32  29  88 E7        30.10S WCI  26          
Omak           CLOUDY    34  29  82 S5        30.12R WCI  30          
Sunnyside      CLOUDY    31  28  87 E6        30.16S WCI  25          
...Southern British Columbia...
  
CITY           SKY/WX    TMP DP  RH WIND       PRES   REMARKS
Penticton      MOCLDY    34  28  80 S10       30.10S WCI  26          
Castlegar      CLOUDY    32  27  80 S8        30.07S WCI  25          
Cranbrook      FLURRIES  25  23  93 VRB2      29.96R                  
Osoyoos          N/A     36  28  75 S5          N/A                   
Creston          N/A     30  28  93 SE1         N/A                   
...Western Montana...
  
CITY           SKY/WX    TMP DP  RH WIND       PRES   REMARKS
Kalispell      SNOW      29  28  96 CALM      29.95S VSB 1/2          
Libby            N/A     30  27  86 CALM      29.97S                  
Missoula       SNOW      27  26  96 SW6       29.97R VSB 1/2 WCI  20  
...Neighboring Cities...
  
CITY           SKY/WX    TMP DP  RH WIND       PRES   REMARKS
Seattle        CLOUDY    42  40  92 S8        30.17S                  
Portland       CLOUDY    40  33  76 NE5       30.28R                  
Boise          CLOUDY    28  22  78 N3        30.15F                  
Great Falls    CLOUDY    46  17  31 SW23      29.73S                  
Calgary        PTCLDY    36  21  55 N6        29.72R